Location: STAR School
(35.3054°N, 111.2976°W)
Time: 16:08:08
(UTC-07:00)

deb Explorer IX - Pass Details

Date: 31 May 2019
Orbit: 537 x 1115 km, 38.8° (Epoch: 16 June)

Event Time Altitude Azimuth Distance (km) Brightness Sun altitude
Exits shadow 04:33:04 - 283° (WNW) 2,659 ? -7.7°
Reaches altitude 10° 04:35:23 10° 274° (W) 1,782 ? -7.3°
Maximum altitude 04:39:01 32° 209° (SSW) 938 ? -6.6°
Drops below altitude 10° 04:42:49 10° 145° (SE) 1,876 ? -6.0°
Sets 04:45:22 0° 136° (SE) 2,842 ? -5.6°
